Location: Franzen
(48.6167°N, 15.3833°E)
Time: 13:47:26
(UTC+00:00)

Sich 1 - Pass Details

Date: 22 April 2021
Orbit: 593 x 625 km, 82.5° (Epoch: 16 May)

Event Time Altitude Azimuth Distance (km) Brightness Sun altitude
Rises 21:35:48 0° 349° (N) 2,846 7.7 -26.3°
Reaches altitude 10° 21:38:01 10° 349° (N) 1,939 6.6 -26.4°
Enters shadow 21:41:29 58° 342° (NNW) 700 3.5 -26.6°
